Погода в Гуасаве

Мексика     25°34′13″N   108°27′39″W
темп.,
°C
ветер,
м/с
пор.,
м/с
влажн.,
%
обл.,
%
осадки,
мм/ч
давл.,
гПа
погр.,
м
8 мая, сб
сб800:00+24зсз12325 0.0 101111
03:00+23з113596 0.0 101011
06:00+21юв22415 0.0 101111
09:00+27ююв33424 0.0 1013592
12:00+33ю54245 0.0 10121283
15:00+34ююз65235 0.0 10111244
18:00+31юз553299 0.0 1010770
21:00+25ю34625 0.0 101176
9 мая, вс
вс900:00+23юв23710 0.0 101251
03:00+23ююв33760 0.0 101166
06:00+21вюв357716 0.0 101292
09:00+26юв455397 0.0 1013559
12:00+33ю55284 0.0 10121373
15:00+33ююз66285 0.0 10101220
18:00+30юз55370 0.0 1009750
21:00+24ююз23670 0.0 101156
10 мая, пн
пн1000:00+23ююв23730 0.0 101140
03:00+22ююв227848 0.0 101129
06:00+21юв3479100 0.0 101269
09:00+26юв3455100 0.0 1012523
12:00+32ю5430100 0.0 10111167
15:00+33юз6426100 0.0 10091146
18:00+31зюз553295 0.0 1009764
21:00+26зюз23432 0.0 101042
11 мая, вт
вт1100:00+24зсз223693 0.0 101118
03:00+23зюз1135100 0.0 101011
06:00+22в113954 0.0 101111
09:00+28юв1131100 0.0 1012394
12:00+34юз4319100 0.0 10111308
15:00+34юз7520100 0.0 10091211
18:00+33зюз66223 0.0 1009854
21:00+25юз34495 0.3 101179
12 мая, ср
ср1200:00+25юв225282 0.8 101246
03:00+23ю11566 0.0 101211
06:00+22всв11590 0.0 101211
09:00+28ссз00380 0.0 1013392
12:00+35зюз43160 0.0 10121381
15:00+36зюз86190 0.0 10101333
18:00+34з78165 0.0 1009953
21:00+28з482594 0.0 1011146